ECMWFNIL_700_spd_057.txt.gz
Wind_Speed
26 26 25 23 23 22 22 22 22 23 23 23 22 20 19 19 19 20 20 21 22 22 22 21 21 20 17 16 14 14 13 13 12 10 8 7 8 8 8 9 9 10
27 26 26 25 24 23 22 23 23 23 24 24 24 23 22 21 22 22 22 22 23 23 23 23 23 21 19 18 16 16 15 15 14 12 10 9 9 9 9 10 9 9
27 27 27 25 24 23 22 22 23 23 24 25 26 25 25 24 24 24 24 24 25 25 25 25 24 23 21 19 18 18 17 17 16 15 13 12 11 10 11 11 10 10
28 28 27 26 24 22 22 22 23 23 23 24 26 26 27 26 26 26 26 26 26 27 27 26 26 24 22 20 19 19 18 18 18 17 15 14 13 12 12 12 12 11
29 28 27 26 25 23 23 23 23 23 22 22 24 26 28 28 28 28 28 27 28 28 28 27 27 25 23 21 20 19 19 19 18 18 17 16 15 14 14 14 13 12
30 30 29 28 27 25 24 23 22 22 22 21 22 25 27 29 29 29 28 28 28 29 29 28 27 26 23 22 21 21 20 20 20 19 18 18 17 16 15 15 14 14
30 30 30 29 28 27 26 24 23 23 22 22 22 24 26 28 29 29 29 29 29 29 29 29 28 26 24 23 22 22 22 22 21 20 20 20 19 18 17 16 16 15
29 30 30 30 29 29 28 27 25 24 24 23 23 24 26 28 29 30 30 30 30 30 30 30 29 27 26 25 24 23 23 23 22 22 21 21 21 20 19 18 18 17
25 27 29 30 31 30 30 29 28 26 25 25 25 24 26 28 29 30 31 31 31 31 31 30 30 29 27 26 25 24 23 23 23 22 22 22 22 22 21 21 19 18
23 24 26 28 29 29 29 29 29 28 27 26 26 26 26 27 29 31 32 32 32 32 31 31 31 30 29 28 26 24 24 23 23 23 23 23 23 23 23 22 20 19
25 24 25 26 26 27 27 27 28 28 28 28 28 28 28 28 30 32 34 34 33 32 32 31 31 30 30 29 27 25 24 24 25 25 24 24 24 24 23 22 21 19
27 27 27 26 26 26 26 26 27 28 28 28 29 29 29 30 31 34 35 35 35 34 33 32 32 31 31 30 29 27 26 26 26 26 25 25 24 24 23 22 21 19
28 28 28 27 27 26 26 26 26 27 28 28 29 30 30 31 32 35 36 36 36 35 34 34 33 33 32 32 31 29 28 28 27 26 26 25 25 24 24 23 21 20
29 29 29 29 28 27 27 27 26 27 28 28 29 30 31 32 33 35 37 38 38 37 36 36 35 35 34 34 33 31 30 29 28 27 27 27 26 26 24 23 21 20
29 29 29 29 29 28 28 28 27 27 28 29 29 30 32 33 34 35 37 39 39 38 38 38 38 37 36 35 34 33 32 31 29 28 28 28 28 27 25 24 22 20
30 30 30 29 29 28 28 28 28 28 29 30 30 31 32 33 34 36 38 39 40 40 39 39 39 39 38 36 35 34 33 32 30 29 29 29 30 28 26 24 23 21
31 30 30 30 30 29 29 29 29 29 29 30 30 30 31 32 34 36 38 39 41 41 40 40 40 40 39 38 37 36 35 34 32 30 30 31 31 30 28 25 24 22
31 31 30 30 30 30 30 30 29 29 29 30 30 30 31 31 33 35 37 39 40 41 41 41 40 40 40 40 39 38 36 35 33 32 32 32 32 32 30 27 25 23
31 31 31 31 31 31 31 31 31 31 30 30 30 30 30 31 32 34 36 38 40 41 42 42 41 41 42 42 41 39 38 37 35 34 34 34 34 34 34 31 27 25
31 32 32 32 33 33 33 33 34 34 33 32 32 32 32 32 33 34 35 37 39 41 42 42 42 42 43 43 42 41 40 39 37 36 36 35 35 35 36 35 31 28
31 32 32 33 33 34 35 36 36 36 36 35 34 34 34 34 34 34 35 36 38 41 42 43 43 43 44 44 44 42 41 40 39 38 37 37 36 37 38 37 33 30
30 31 31 32 33 34 35 36 37 38 38 38 37 37 36 36 36 36 36 37 38 40 42 44 44 44 44 45 45 43 42 42 42 41 40 38 37 38 39 39 36 32
29 30 30 31 32 33 34 35 36 38 39 40 40 40 39 39 38 38 38 38 39 40 42 43 44 45 45 45 46 45 44 44 43 43 42 40 39 39 40 40 37 34
30 30 30 32 33 35 35 35 35 36 38 39 41 42 42 41 41 41 41 40 41 41 42 42 44 46 46 46 46 46 45 45 44 44 43 41 40 40 41 41 39 35
30 30 31 33 34 34 34 35 35 35 36 38 39 42 44 44 44 44 44 43 43 44 44 44 44 46 46 47 47 47 46 45 44 45 45 43 42 42 44 43 40 36
27 27 28 29 29 29 30 30 31 32 34 36 38 41 44 45 46 47 47 47 46 47 47 47 46 47 47 47 47 47 47 46 46 46 47 45 43 44 45 45 42 37

ECMWFNIL_700_spd_060.txt.gz
Wind_Speed
28 27 27 26 25 24 23 22 22 22 22 22 22 20 19 21 23 25 24 23 24 26 26 25 24 24 22 20 19 17 16 15 13 12 10 9 7 6 6 7 8 8
28 27 27 26 25 24 23 22 22 22 23 22 22 22 20 21 23 25 26 25 25 26 28 27 27 26 25 23 21 19 18 17 16 14 13 11 9 8 7 8 9 9
28 28 27 26 25 24 23 22 22 23 23 23 23 23 23 22 23 26 27 26 26 27 28 28 28 28 27 25 24 22 20 18 18 17 15 14 12 10 10 9 10 10
28 27 27 26 25 24 24 24 23 23 24 24 24 24 24 24 24 26 27 28 27 28 28 29 29 29 29 27 26 24 22 20 19 18 17 16 14 13 12 11 11 11
28 27 27 26 26 25 25 25 24 23 24 24 24 25 25 25 25 27 28 28 29 29 29 29 30 30 30 29 28 26 24 22 21 20 18 17 17 15 14 13 12 12
29 28 27 27 26 26 26 25 24 24 24 24 24 25 26 26 27 28 28 29 29 30 30 30 30 31 31 30 29 28 26 24 23 21 20 19 18 17 16 15 14 14
29 29 28 27 27 27 26 26 25 25 25 24 24 24 25 27 28 29 30 30 31 31 31 31 31 31 31 31 30 29 27 26 25 23 22 21 19 18 17 16 16 16
29 29 29 29 29 28 27 26 26 26 25 25 25 24 25 26 28 30 31 32 32 32 32 32 31 32 32 31 30 30 29 27 26 25 23 22 21 19 19 19 18 18
29 30 30 30 30 30 28 27 26 25 26 26 25 24 25 26 27 30 32 33 33 33 33 32 32 32 33 32 31 31 30 29 28 26 25 24 22 21 21 21 21 20
27 28 30 31 31 31 29 28 27 26 26 26 26 25 26 26 27 29 31 33 34 34 34 33 33 33 33 33 32 31 31 30 29 28 27 26 24 23 23 23 23 21
24 25 27 28 29 30 30 29 29 28 28 27 27 27 28 27 27 29 31 33 34 35 35 34 33 33 34 34 33 32 32 31 31 30 29 28 27 25 25 25 24 23
24 24 24 24 25 27 28 29 30 30 30 29 29 29 30 30 30 30 31 33 34 34 35 35 34 34 35 35 34 34 33 33 33 32 31 30 29 27 26 25 25 24
27 25 24 22 23 24 24 26 28 29 30 30 30 30 31 32 32 31 32 33 33 34 35 36 35 35 35 36 36 35 35 34 34 34 33 32 30 28 27 27 26 26
29 27 25 25 24 24 24 24 25 26 27 28 29 30 31 32 33 33 33 33 33 34 35 36 37 37 36 37 37 37 36 35 35 35 34 34 32 30 29 28 27 27
30 28 27 27 27 27 27 26 25 25 26 26 28 29 30 32 33 34 34 35 35 34 35 37 38 38 37 37 38 38 38 36 36 36 36 35 34 32 31 31 29 28
30 30 29 29 30 30 29 28 28 27 27 27 27 28 29 31 32 34 35 36 36 36 37 38 40 39 38 38 38 39 39 38 37 37 37 37 36 34 34 33 32 30
31 32 32 32 32 31 31 30 30 30 30 29 29 28 29 30 31 33 35 36 36 37 38 39 40 40 39 39 39 39 40 40 39 39 39 38 37 37 36 36 35 32
33 34 34 34 33 33 33 32 31 32 32 31 30 29 29 29 31 32 34 35 36 36 38 39 40 40 40 40 40 40 41 41 41 41 40 40 39 38 38 38 38 35
34 35 35 35 34 33 33 32 32 32 32 31 30 29 28 29 29 30 32 34 35 36 37 38 39 40 40 41 42 42 43 43 43 43 42 41 41 40 40 40 40 38
35 36 35 34 33 33 32 32 32 32 31 31 30 29 29 29 29 30 30 32 34 35 36 37 38 39 40 41 43 43 44 45 46 46 45 43 43 42 42 42 42 41
36 35 34 34 33 33 32 32 32 32 31 31 31 31 31 30 30 30 31 31 33 34 35 36 37 38 39 41 43 44 46 47 48 48 48 46 45 44 44 44 44 44
36 35 34 34 33 33 33 32 32 32 32 32 33 33 33 33 32 32 32 33 33 34 35 36 37 38 39 40 43 45 46 48 49 50 50 49 48 47 47 47 46 46
35 35 34 33 33 33 33 32 32 33 33 34 35 36 36 36 35 35 35 35 35 35 36 37 37 39 39 40 42 44 46 48 50 51 52 52 51 51 50 50 48 48
34 34 33 34 34 33 32 32 33 34 35 36 36 37 38 38 38 38 38 37 37 37 38 38 39 40 40 41 42 44 45 48 51 52 53 53 53 53 53 52 51 50
34 34 34 34 34 33 33 33 33 34 35 36 37 38 38 39 40 41 41 41 40 40 41 41 41 42 42 42 43 44 45 48 51 53 54 55 55 56 55 55 54 53
34 35 35 35 34 33 32 32 33 34 35 36 37 38 39 39 41 42 43 43 43 43 44 44 44 44 44 43 44 45 45 47 50 53 55 56 57 58 58 58 57 55

ECMWFNIL_700_spd_063.txt.gz
Wind_Speed
28 27 27 27 26 25 24 23 23 22 22 21 21 21 21 22 23 25 25 23 23 23 24 24 23 23 23 21 19 18 17 16 14 13 12 10 8 5 4 4 4 5
28 28 28 27 27 26 25 23 23 23 22 21 21 21 21 22 23 26 26 26 24 24 25 26 26 25 25 24 22 20 19 18 17 15 14 13 11 8 6 5 5 6
28 28 27 27 26 25 25 25 24 24 23 22 22 22 22 22 23 25 26 27 27 26 26 27 28 27 27 27 25 23 22 20 19 18 17 15 14 11 9 7 7 7
27 27 27 26 26 25 25 26 25 23 23 22 22 23 23 23 23 23 25 27 28 28 28 28 28 29 29 29 27 26 24 23 22 21 19 17 16 14 12 10 9 8
26 26 26 26 26 26 26 25 24 23 23 22 22 23 23 23 23 23 24 26 28 29 29 28 29 29 30 30 29 28 26 25 24 24 22 19 18 17 15 13 12 11
27 27 26 26 26 26 26 25 24 23 23 23 23 23 23 24 23 23 24 25 27 29 30 29 29 29 30 31 31 29 28 27 26 26 24 21 20 19 18 16 14 13
28 27 27 27 26 27 26 25 24 24 24 23 24 24 24 24 24 24 24 25 27 29 30 30 30 29 29 31 31 30 29 29 28 28 26 24 22 22 21 19 17 16
29 28 28 28 27 27 27 26 25 25 25 25 25 25 25 25 25 24 24 25 27 29 30 31 31 30 30 31 31 30 30 30 30 30 28 26 25 24 23 22 20 19
29 29 29 29 29 28 27 26 26 25 25 25 26 26 26 26 26 25 25 25 27 29 30 31 32 31 31 32 31 30 30 31 31 31 30 28 27 26 26 25 24 21
29 30 30 30 30 29 28 27 26 26 26 25 25 26 27 27 27 26 26 26 27 29 30 31 32 31 31 31 32 31 30 31 32 32 32 30 29 28 28 28 27 24
29 29 30 30 30 30 28 27 27 27 26 26 25 26 28 28 27 26 26 27 27 29 30 30 31 31 31 31 32 31 30 31 32 33 33 32 30 30 30 30 30 28
27 28 29 29 30 30 29 28 28 28 28 27 26 26 28 29 28 27 27 27 26 27 29 30 29 30 31 31 32 32 32 31 32 33 34 33 32 32 32 32 32 31
26 25 26 26 27 28 29 28 29 29 29 29 28 27 28 29 29 27 27 27 26 26 28 29 29 30 30 31 32 33 33 33 33 34 34 34 34 33 33 33 33 33
26 25 23 23 23 24 25 26 27 28 29 29 29 28 28 29 29 29 28 28 28 28 28 29 30 31 31 31 32 33 34 34 33 34 35 35 35 34 34 35 35 34
27 26 24 23 23 22 22 22 23 24 26 27 27 27 28 29 30 31 31 30 31 31 31 30 32 33 32 32 32 33 34 35 34 34 35 36 36 36 36 36 37 36
27 26 26 25 25 24 23 22 22 22 22 23 24 24 24 26 28 31 32 32 32 32 33 33 34 34 34 33 32 32 34 35 35 34 35 36 37 37 37 37 38 38
28 27 27 27 27 26 25 24 24 24 23 23 23 22 23 24 26 28 30 32 33 32 32 34 35 35 35 34 34 33 34 35 36 36 36 37 38 38 38 39 39 40
30 29 29 29 29 28 27 26 26 26 26 26 25 24 24 24 25 26 27 29 32 32 30 32 34 35 35 35 35 34 35 36 37 38 38 38 39 40 40 40 41 41
33 32 32 32 31 31 29 28 28 28 28 28 27 26 26 26 26 26 26 27 29 31 30 29 30 32 34 35 35 35 35 37 38 40 40 40 41 41 42 42 43 43
35 34 34 34 33 33 32 30 30 30 30 30 29 29 28 28 28 27 27 27 27 29 30 28 28 29 30 32 34 34 35 37 39 41 42 42 43 43 44 44 44 45
35 35 35 35 35 35 34 33 32 31 31 32 32 31 30 30 30 29 29 29 28 30 31 30 29 28 28 29 31 33 35 36 38 41 43 44 45 45 45 45 45 46
33 35 36 37 36 36 35 34 33 33 33 33 34 33 32 31 31 30 30 31 30 31 32 32 31 30 29 29 29 31 34 36 38 40 42 44 45 46 46 46 46 47
32 35 36 36 36 35 34 33 33 33 34 34 34 34 33 32 31 31 31 32 32 32 32 33 33 33 32 31 30 31 33 35 38 40 41 43 43 44 46 46 47 48
33 34 34 34 33 33 32 33 33 33 33 33 33 33 33 33 32 32 32 33 34 35 35 35 35 36 35 34 33 33 34 35 38 40 42 43 43 44 45 46 47 49
34 33 32 32 32 32 32 33 33 33 33 33 33 33 34 34 35 35 35 36 37 38 38 38 38 38 38 37 37 37 37 37 39 41 43 44 44 45 45 47 49 50
33 33 32 33 33 33 33 33 33 33 34 34 34 34 36 37 38 39 39 39 40 41 42 42 42 41 41 40 40 41 41 41 42 43 44 45 45 46 47 49 51 52

ECMWFNIL_700_spd_069.txt.gz
Wind_Speed
25 24 24 23 22 21 21 21 19 18 17 16 14 13 14 14 14 14 13 13 14 14 15 14 13 13 13 13 13 13 13 11 10 8 7 5 4 3 3 3 3 4
26 25 25 24 24 23 22 21 20 19 17 16 15 13 14 15 15 15 15 15 15 15 15 15 15 15 14 14 14 14 15 14 12 11 9 8 7 6 5 5 5 5
26 26 26 25 24 24 23 22 21 20 18 17 16 14 14 15 16 16 15 16 16 16 16 16 16 16 16 16 15 14 15 16 15 14 12 11 10 9 8 8 7 6
27 26 26 25 25 24 23 22 21 20 19 18 16 15 15 16 16 16 16 16 16 16 16 16 16 16 16 17 17 15 15 16 17 16 15 14 13 11 11 10 9 8
26 25 25 25 25 25 24 22 21 20 20 18 17 17 17 17 17 17 17 16 16 16 17 16 16 16 17 17 17 16 15 16 17 18 18 16 15 14 13 12 11 10
26 26 26 26 26 25 24 23 21 21 21 20 20 19 18 18 18 17 17 16 16 16 16 16 16 16 17 17 17 16 16 15 17 18 18 18 17 17 16 15 14 13
26 26 26 26 26 26 25 24 23 22 21 21 21 20 19 18 18 18 17 16 16 16 16 16 16 16 16 16 17 17 16 16 16 18 19 18 18 18 18 18 17 16
26 26 26 26 27 26 26 25 24 22 21 22 22 21 20 19 18 18 17 17 16 16 15 16 16 17 17 17 16 16 17 16 16 16 18 19 19 18 18 19 19 18
25 26 26 26 27 26 26 25 24 23 22 22 21 21 20 20 19 18 17 17 16 16 16 16 16 17 17 17 16 16 16 16 16 16 16 18 19 18 18 19 20 20
25 26 26 27 26 26 26 25 24 23 23 22 21 21 21 20 20 19 18 17 17 16 16 17 17 17 16 16 16 15 15 16 17 17 16 17 18 18 19 19 20 20
26 27 27 27 27 26 25 25 24 24 23 22 22 21 21 20 20 20 19 19 17 16 16 16 17 17 16 16 15 15 16 16 17 17 17 16 17 18 19 20 20 20
27 28 28 28 27 27 26 25 25 24 23 23 22 21 21 21 20 20 20 19 17 16 15 15 16 16 17 16 15 15 16 16 17 18 18 17 16 17 18 19 20 20
27 27 27 27 27 27 26 26 26 25 24 23 22 22 21 21 21 20 19 18 17 16 16 15 15 16 17 16 16 15 15 16 17 18 19 19 17 17 17 19 20 20
26 26 27 27 27 27 27 27 27 26 25 24 23 23 22 22 21 20 19 18 17 17 16 16 16 16 17 17 16 16 15 15 15 16 17 18 18 18 17 18 19 20
23 25 26 26 27 27 27 27 27 27 26 25 24 23 23 22 21 21 20 19 18 17 17 17 17 17 16 16 16 16 15 15 14 14 15 16 18 18 18 18 19 20
22 24 25 26 27 27 27 27 26 26 26 25 25 23 22 22 22 22 22 21 19 19 18 18 19 18 17 16 16 16 15 15 15 14 14 15 17 18 19 19 19 20
23 23 24 25 26 26 26 26 26 26 25 25 24 23 22 22 21 22 22 22 21 20 19 19 19 18 18 17 16 16 15 15 15 14 14 14 15 16 17 18 19 19
26 24 23 24 25 25 25 25 25 25 24 24 23 21 20 19 19 20 20 20 20 19 18 17 16 16 16 16 15 15 15 15 14 14 14 14 14 15 16 17 18 19
29 27 26 24 24 23 23 24 24 24 22 21 19 18 17 16 15 15 16 16 16 15 14 12 11 11 11 12 12 12 13 14 14 14 14 14 14 15 16 17 18 20
32 31 29 27 24 23 23 24 23 22 21 19 18 17 16 15 14 13 13 13 13 13 12 10 9 9 9 9 10 10 11 13 14 14 15 15 16 17 17 18 19 21
31 32 32 30 28 26 25 25 24 23 21 20 19 18 17 15 14 14 13 13 13 14 14 12 10 9 10 10 11 11 12 14 16 17 18 18 19 19 20 21 22 23
27 31 32 32 31 30 28 27 26 25 23 22 21 20 19 18 17 17 16 15 15 15 16 14 12 11 11 11 12 13 14 17 19 20 21 22 23 23 24 25 25 26
20 25 29 32 33 33 31 30 28 27 26 25 24 23 22 21 20 19 18 18 17 17 17 16 15 14 14 14 14 16 17 19 21 22 23 24 25 26 27 28 29 29
16 18 22 28 31 32 32 31 30 29 28 27 27 26 25 23 23 23 22 21 20 19 18 18 18 17 18 18 19 21 23 24 25 25 25 26 26 27 28 29 30 31
17 16 17 20 25 29 31 31 31 31 30 30 29 28 27 27 26 26 25 23 22 20 20 20 20 20 20 22 23 25 27 28 29 30 30 29 29 30 30 31 32 32
18 17 16 17 20 24 27 30 32 32 33 33 32 31 30 30 29 28 26 25 23 22 22 22 22 23 23 25 27 29 30 31 33 33 33 33 34 34 34 34 35 36

ECMWFNIL_700_spd_072.txt.gz
Wind_Speed
24 24 24 23 23 23 23 22 21 20 19 17 16 15 14 14 14 15 15 15 15 15 16 15 15 15 16 17 18 17 15 13 12 10 8 6 5 3 2 2 3 3
26 25 25 25 25 24 24 23 22 21 20 18 16 15 15 15 15 15 16 16 16 16 16 17 16 16 16 17 18 18 17 15 14 12 10 9 7 6 4 3 1 0
27 27 27 26 25 24 23 23 23 22 20 19 17 16 17 17 16 16 16 17 17 17 17 17 17 17 17 17 17 18 19 18 16 14 13 12 10 9 7 6 4 3
29 28 27 26 25 24 24 24 23 23 21 20 19 17 18 18 18 17 17 17 18 18 18 18 17 17 17 17 17 18 19 19 19 17 16 14 13 11 10 9 7 6
29 28 27 26 26 25 25 25 24 23 22 20 19 18 18 19 19 18 18 18 18 18 18 18 18 17 17 17 17 18 19 20 20 20 18 17 15 14 13 12 10 9
29 29 28 27 27 27 27 26 24 24 23 21 20 20 19 19 19 19 18 18 17 17 17 17 17 17 17 17 17 17 18 19 20 21 21 20 19 18 16 15 13 12
30 29 29 28 28 28 27 26 25 25 24 22 21 21 20 20 20 19 18 17 17 16 17 16 16 16 16 17 17 16 17 18 20 21 22 22 22 21 20 18 17 15
29 29 29 29 29 28 28 27 26 25 24 23 23 21 21 21 20 19 19 18 17 16 16 16 16 15 16 16 16 16 16 17 18 19 20 21 23 23 22 21 20 19
28 29 29 29 29 29 28 27 26 25 24 24 23 22 22 21 20 19 19 18 17 17 17 17 17 17 17 16 15 15 15 16 17 18 19 20 21 22 22 23 22 21
28 29 29 30 30 29 28 27 26 25 25 24 23 23 23 22 20 20 19 19 19 17 17 16 16 17 17 17 15 14 14 14 15 16 17 18 19 21 22 23 23 22
28 30 30 30 30 30 29 28 27 26 26 25 24 24 23 22 21 20 20 20 19 18 17 16 15 15 16 15 14 14 14 14 14 15 16 17 18 19 21 22 22 22
28 29 30 30 29 29 29 28 27 27 26 25 24 23 23 23 22 21 20 20 18 17 16 16 15 15 15 14 13 13 14 14 15 15 15 16 17 18 19 20 20 20
27 27 28 28 28 28 28 27 27 27 26 25 24 23 23 23 22 21 20 19 17 17 16 16 16 16 15 15 14 14 13 14 15 14 14 14 15 15 17 18 18 18
26 26 27 27 27 27 27 27 27 26 26 24 23 23 23 22 21 20 19 18 18 17 16 16 16 16 16 15 14 14 13 13 13 14 14 13 13 14 15 16 17 17
26 27 28 27 27 27 27 27 26 26 25 24 24 24 22 22 21 20 20 19 18 18 17 17 17 16 15 14 13 13 12 11 11 12 13 13 13 13 14 15 15 16
24 27 28 28 28 28 27 27 26 26 26 25 25 24 23 22 22 21 21 21 20 19 18 18 18 16 14 12 12 11 11 11 11 11 12 13 13 13 14 14 14 15
22 24 26 27 27 27 27 27 26 26 26 26 25 25 24 23 23 23 22 21 20 20 19 19 18 16 14 13 13 12 12 12 12 12 12 13 13 14 14 14 15 16
22 22 23 24 25 25 25 25 26 26 26 25 25 25 24 24 23 23 22 22 21 20 19 19 18 16 15 15 14 14 14 14 14 13 14 14 14 14 14 15 16 17
26 25 24 23 23 23 23 24 25 25 24 24 24 24 24 23 23 22 22 21 21 20 19 18 16 15 15 15 15 15 15 16 15 14 14 14 14 14 14 14 15 16
30 28 27 25 23 23 23 24 25 24 24 24 23 23 23 22 21 21 21 21 20 18 16 15 13 12 13 13 13 13 13 14 14 13 13 13 13 13 13 14 14 15
34 32 30 28 25 24 24 24 24 24 24 23 23 22 21 19 19 19 19 18 17 14 13 12 11 10 10 10 10 9 10 11 13 13 14 14 13 14 14 15 15 16
34 35 34 32 29 27 25 24 23 23 22 23 22 21 20 19 19 18 18 16 15 13 13 12 10 9 9 9 9 9 11 13 15 16 17 17 17 17 18 18 18 19
32 35 36 35 33 31 28 26 24 22 22 22 22 21 20 19 18 17 16 15 15 14 14 13 11 11 12 12 12 14 16 17 19 19 20 21 21 21 21 22 22 22
29 32 35 36 36 35 32 29 26 24 23 23 23 22 21 19 18 18 17 17 17 16 16 16 14 15 16 16 17 18 20 21 22 23 24 24 24 24 24 24 24 25
24 27 31 34 36 37 35 33 30 28 26 25 24 23 22 21 21 21 20 19 19 19 19 19 19 18 19 19 20 21 22 23 24 25 26 26 25 25 25 25 26 27
20 22 25 29 32 35 36 36 34 32 30 28 27 26 25 24 24 24 23 23 22 22 22 22 22 22 22 22 22 23 24 25 26 27 27 27 27 27 27 28 28 29

ECMWFNIL_700_spd_075.txt.gz
Wind_Speed
27 26 26 25 25 25 25 24 22 21 20 20 19 18 16 15 16 15 14 14 14 15 15 16 17 19 20 20 17 16 14 13 11 10 8 7 7 6 6 5 5 5
29 28 27 27 26 26 26 25 23 22 21 20 19 18 18 18 17 16 15 15 15 16 17 17 18 19 20 21 20 18 17 15 14 12 10 9 8 7 6 5 4 3
31 30 29 28 27 26 25 25 24 23 22 21 20 20 20 19 19 17 16 16 17 17 18 19 19 19 19 20 21 21 20 18 16 15 14 12 11 9 8 7 5 3
32 31 30 29 28 26 26 26 25 24 23 22 21 20 21 20 20 19 17 17 18 18 19 20 20 20 20 20 21 22 22 20 19 18 17 15 14 12 11 10 8 6
32 31 30 29 28 27 27 27 26 25 24 22 21 21 21 21 21 20 18 18 18 18 19 20 20 21 21 21 21 21 22 22 22 20 19 17 16 15 14 12 11 9
33 32 31 30 29 29 29 28 27 26 25 23 22 22 22 22 21 21 19 17 17 18 18 19 19 20 21 21 21 22 22 23 23 23 21 20 18 17 17 15 14 12
34 33 32 31 31 30 30 29 28 27 26 25 24 23 22 22 21 20 19 17 17 18 18 18 18 19 20 20 21 21 22 23 24 24 23 22 22 20 19 18 16 15
35 34 33 32 32 32 31 30 29 28 27 26 25 23 23 22 21 20 20 19 18 18 18 18 18 19 20 20 20 20 21 23 24 25 24 24 24 23 22 20 19 18
35 34 34 33 32 32 31 30 30 29 28 27 26 24 24 23 22 21 21 20 20 19 18 18 18 19 19 20 19 19 20 22 23 24 24 25 25 24 24 24 23 21
35 35 34 33 33 32 31 31 30 30 29 28 27 26 25 24 23 23 22 22 22 20 19 19 18 18 18 18 18 18 19 20 21 23 24 25 25 25 26 26 25 24
35 35 35 33 32 32 31 31 31 30 30 29 28 27 26 25 24 24 24 24 23 21 20 19 18 17 17 17 16 16 17 17 19 21 22 23 24 25 26 27 27 25
34 34 34 33 32 31 31 31 31 30 30 29 28 28 27 26 25 25 25 24 23 22 21 19 18 17 17 16 15 15 15 16 17 18 20 21 22 24 25 26 26 25
33 32 32 31 30 30 30 30 30 30 29 29 28 28 27 27 26 25 24 23 22 22 21 19 19 18 17 17 16 16 15 15 15 16 17 19 20 21 23 24 25 24
29 30 30 30 30 30 30 30 30 30 29 28 28 28 28 27 26 25 24 23 22 21 21 20 20 20 19 17 16 15 15 14 14 14 15 16 17 19 20 22 22 23
27 28 29 30 30 30 29 29 29 29 29 29 28 28 27 27 26 25 24 23 22 21 20 21 21 20 18 17 16 15 14 13 13 13 13 14 15 16 18 20 21 21
26 27 28 29 29 28 28 28 28 29 28 28 28 28 27 26 25 25 24 23 21 20 20 21 20 19 17 16 15 15 14 14 13 13 13 14 14 16 17 18 18 18
26 27 27 28 27 27 27 27 27 27 27 27 27 27 26 25 25 25 24 22 21 20 20 20 19 17 16 16 15 15 15 15 15 14 14 15 15 16 16 17 17 17
25 26 27 27 27 27 27 27 27 27 26 26 26 25 25 25 25 24 23 22 22 21 21 20 19 17 16 16 16 16 16 16 16 16 16 16 16 17 17 17 17 17
24 25 26 27 28 28 28 28 28 27 27 26 26 26 26 26 25 24 24 23 23 22 21 20 19 17 17 17 17 17 17 17 18 18 18 18 18 18 18 18 18 19
26 26 25 26 27 28 29 29 29 28 27 27 27 27 27 27 26 25 24 24 23 22 21 20 19 18 18 17 17 17 17 18 19 20 21 21 20 19 19 18 18 18
30 29 28 27 27 27 29 30 29 28 28 27 27 27 27 26 26 25 25 24 23 22 21 20 19 18 18 18 17 17 18 19 20 21 22 21 19 18 17 16 15 16
32 31 31 30 29 28 28 28 28 28 27 27 27 27 26 26 25 24 24 23 23 22 21 20 18 17 18 18 18 18 19 20 20 20 19 18 16 15 15 14 15 16
31 32 33 33 32 31 30 28 27 27 27 27 27 26 26 25 24 23 22 22 22 22 21 19 17 17 18 18 18 18 19 19 19 18 18 17 16 16 16 17 17 18
28 30 32 34 35 34 32 30 28 27 27 27 27 26 25 24 23 22 22 22 22 21 20 18 18 19 18 18 18 18 18 18 18 19 19 19 19 19 19 20 20 21
24 26 29 32 36 36 36 34 31 29 28 27 26 26 25 24 23 23 23 23 22 21 20 19 19 19 18 17 17 19 19 19 20 21 22 22 21 22 22 23 24 24
21 23 26 29 33 35 36 37 35 32 30 28 27 26 25 25 24 24 24 24 23 22 21 20 19 18 18 18 18 19 20 21 22 24 24 24 24 25 26 26 26 26

ECMWFNIL_700_spd_078.txt.gz
Wind_Speed
27 26 25 25 25 25 24 23 23 22 22 22 20 18 16 16 15 14 12 12 12 12 13 14 16 17 17 15 14 13 12 10 9 8 8 8 8 8 8 7 7 7
28 27 27 26 27 27 25 24 23 22 22 21 21 19 19 18 17 16 14 14 13 13 14 15 16 18 19 18 17 15 14 13 11 10 9 8 7 7 7 7 6 6
30 29 29 28 27 27 26 25 24 23 22 22 22 21 21 20 18 17 16 15 15 15 15 16 17 18 20 20 20 18 17 15 14 13 12 10 9 8 8 7 6 5
31 31 30 29 28 28 27 27 25 24 23 23 22 22 21 21 20 19 17 16 16 16 16 17 18 19 20 21 21 21 20 18 17 16 15 13 12 11 10 9 8 6
32 32 31 30 30 29 29 29 27 25 24 23 23 22 22 22 21 20 18 17 16 16 17 17 18 19 20 21 21 22 22 21 20 19 17 16 15 14 12 11 9 8
34 33 32 32 31 31 31 30 28 27 25 24 23 23 23 23 22 21 19 17 16 16 17 17 18 20 20 21 22 22 22 22 22 22 20 18 17 17 15 14 12 11
35 34 34 33 33 33 33 31 30 28 27 25 25 24 24 23 23 22 20 18 16 16 16 17 18 19 20 21 22 22 22 23 23 24 22 21 20 19 18 17 15 14
35 35 35 35 35 34 34 33 31 30 28 27 26 25 24 24 23 23 22 20 18 16 16 17 17 18 20 21 22 22 23 23 24 24 24 23 22 21 20 19 18 17
36 36 35 36 36 35 35 33 32 31 30 29 27 26 25 25 24 24 23 22 20 18 17 17 18 18 19 20 21 21 22 23 23 24 24 24 24 23 22 22 21 20
36 36 36 36 36 36 35 34 33 32 31 30 28 27 27 26 25 25 24 24 22 20 19 18 18 18 19 20 20 21 21 22 23 24 25 25 25 25 25 25 24 23
37 36 37 37 36 36 35 34 33 33 32 30 29 28 27 27 26 26 25 24 23 21 20 19 18 19 19 19 19 20 21 21 23 24 25 25 25 26 26 26 26 25
37 37 37 37 36 36 35 34 34 33 32 31 30 29 28 27 27 26 25 25 23 22 21 20 19 19 19 19 19 19 20 21 22 22 23 24 24 25 26 26 26 26
36 36 36 36 36 36 35 35 34 34 33 31 30 30 29 28 27 26 26 25 24 23 22 21 20 20 19 19 19 19 19 20 20 21 21 22 22 23 24 25 26 26
34 34 34 35 35 35 35 35 35 34 33 32 31 30 29 28 27 26 26 25 25 24 23 23 22 21 20 20 19 18 18 18 19 19 19 20 20 20 21 22 24 24
31 31 32 33 34 35 35 35 35 34 33 33 31 30 29 28 28 27 27 26 25 25 25 24 24 22 21 20 19 18 18 17 17 17 17 17 18 18 19 20 20 21
29 29 31 32 33 34 34 33 33 33 33 32 31 29 29 28 28 28 27 26 26 25 25 25 24 22 20 20 19 19 18 18 17 17 16 16 16 17 18 18 18 19
29 29 30 31 31 31 31 31 31 31 32 31 30 30 29 29 28 28 27 26 26 26 26 25 23 21 20 20 19 19 19 18 17 17 16 16 16 16 16 16 16 17
28 28 29 29 28 28 28 28 29 30 30 30 30 29 29 29 28 28 27 27 26 26 25 24 22 20 20 20 20 20 19 19 18 17 17 17 16 16 16 16 16 17
27 27 27 26 26 25 26 27 28 28 28 28 29 29 29 29 28 27 27 26 26 24 23 21 20 19 20 20 20 20 20 20 19 19 19 18 17 17 17 17 17 18
24 25 25 25 25 26 26 27 27 26 27 27 28 28 28 28 27 27 26 26 25 23 22 20 19 19 19 20 20 21 21 21 21 21 20 20 19 19 19 19 19 20
23 23 23 24 25 26 27 27 27 27 27 27 27 28 27 27 27 27 26 25 25 24 23 21 19 19 20 21 21 21 22 23 23 23 23 22 21 21 21 21 21 22
25 24 24 23 24 25 27 28 28 28 27 27 28 28 27 27 28 27 26 26 25 25 25 22 20 20 21 21 22 23 24 24 24 24 25 24 23 23 22 22 22 22
29 28 27 26 26 25 25 25 26 26 27 27 28 28 27 27 27 26 26 26 26 26 25 22 21 21 22 22 23 24 25 25 25 25 26 26 24 24 22 21 20 19
30 30 30 30 30 28 27 26 25 24 25 26 27 27 27 26 26 26 26 26 26 25 24 22 21 22 23 24 24 25 26 26 26 27 28 27 24 22 20 18 17 16
27 29 29 30 31 31 30 29 28 27 26 26 26 26 26 27 27 27 26 26 25 24 23 22 21 22 24 25 25 26 27 27 28 29 28 25 21 19 18 17 17 17
24 25 27 28 29 29 29 30 30 30 30 29 28 27 27 27 27 27 26 26 25 24 24 23 22 23 24 25 26 27 28 28 28 27 24 21 20 19 19 19 20 20

ECMWFNIL_700_spd_084.txt.gz
Wind_Speed
29 28 27 27 26 25 25 25 24 23 22 20 18 17 17 16 16 15 15 14 14 13 12 12 13 12 11 11 11 10 10 10 10 10 10 11 11 11 10 10 10 9
29 29 29 28 27 27 26 25 25 24 23 21 20 19 19 18 18 17 16 16 15 14 13 13 13 14 14 13 13 12 12 11 11 11 11 10 10 10 10 9 9 9
30 29 29 28 28 27 27 26 26 25 24 24 23 21 20 20 20 19 18 17 16 16 15 14 14 14 15 15 14 14 13 13 12 12 12 11 10 9 9 8 8 7
31 30 29 29 28 28 28 28 27 26 26 25 24 22 22 22 21 20 19 18 17 16 15 15 14 14 15 16 16 16 15 14 14 13 12 12 11 10 9 8 7 6
31 30 30 29 29 29 29 29 28 28 27 26 25 24 23 23 22 21 20 19 18 17 16 16 15 15 15 16 17 17 17 16 16 15 14 13 12 11 10 9 9 8
32 31 30 30 29 29 30 29 29 28 28 28 27 26 25 24 22 22 21 20 19 19 18 17 17 16 17 17 18 19 19 19 18 17 16 15 14 14 13 12 11 10
33 32 31 31 30 30 30 30 29 30 30 29 28 27 26 25 23 22 21 21 21 20 20 19 19 18 18 18 19 19 20 20 20 19 18 18 17 16 16 15 14 14
34 34 33 32 32 31 30 30 30 31 31 30 29 28 27 26 24 23 22 21 21 21 21 21 20 20 20 20 20 20 20 21 21 21 21 20 20 19 19 18 17 17
35 35 34 33 33 32 31 31 31 31 31 31 30 29 29 27 26 24 22 21 21 21 21 21 21 20 21 20 20 20 21 21 22 22 22 22 22 21 21 21 20 20
35 35 35 35 34 34 33 32 32 32 32 31 30 30 30 28 27 26 23 21 21 20 20 20 20 20 20 20 20 20 21 22 22 23 23 24 24 23 23 23 23 22
34 35 36 36 35 35 34 33 33 33 33 32 31 31 31 30 29 27 25 23 21 21 20 20 20 20 20 20 20 20 21 21 22 23 24 24 25 25 25 25 25 25
33 34 36 36 36 36 35 34 35 34 34 33 33 32 31 31 30 29 27 24 22 22 21 20 20 20 20 20 20 20 20 21 22 23 23 25 25 26 26 26 26 26
32 33 34 35 36 36 36 36 36 35 35 34 33 33 32 31 31 30 28 25 24 24 23 21 21 21 21 21 21 20 20 20 21 22 22 23 24 25 26 27 27 27
31 32 33 34 35 36 36 37 37 36 36 35 34 34 33 32 31 30 28 27 27 26 25 23 22 22 22 21 21 20 20 20 20 21 22 22 23 24 25 26 26 26
29 30 32 33 34 35 36 36 37 37 37 36 35 35 34 32 31 30 29 29 28 27 27 26 24 22 22 21 20 20 20 19 20 20 21 22 22 23 24 25 25 26
28 29 30 32 33 34 35 35 36 36 37 36 36 35 34 33 31 30 29 29 29 28 28 27 25 23 22 21 20 20 20 20 20 20 21 22 22 23 24 25 25 25
27 27 28 30 31 32 33 33 34 35 36 36 35 35 34 33 32 31 30 29 28 28 28 28 26 24 22 21 20 20 21 21 21 21 21 22 23 24 24 24 25 25
28 28 27 28 29 30 31 32 33 34 34 34 34 34 33 33 32 31 29 29 28 28 28 27 26 25 23 22 22 22 22 22 22 22 22 23 24 24 24 24 25 25
30 29 28 27 27 28 29 31 32 33 33 32 32 32 32 32 32 30 30 29 29 28 28 27 26 25 24 23 23 23 23 23 23 23 23 24 25 25 25 25 25 26
32 31 29 27 26 27 28 30 31 32 32 31 31 31 32 31 31 30 30 29 29 28 27 27 27 26 24 24 24 24 25 25 25 24 24 25 25 26 26 25 25 26
33 33 31 29 27 27 27 28 30 31 31 31 31 31 31 30 30 30 30 29 29 28 28 28 27 26 24 24 25 26 26 26 27 26 26 25 26 26 26 26 25 25
33 34 33 30 28 27 27 28 29 30 30 30 31 31 30 30 30 30 30 30 29 29 29 28 27 26 25 24 25 27 28 28 28 28 27 26 26 25 25 25 25 25
34 34 33 31 29 28 28 28 29 29 29 30 30 30 30 30 30 30 30 30 30 30 30 28 27 27 26 25 26 27 29 29 29 28 28 27 26 25 25 24 24 24
34 33 33 31 30 29 29 28 28 28 28 29 29 30 30 30 29 30 30 30 30 30 30 28 27 27 26 26 26 28 29 29 29 29 29 28 27 26 25 24 24 23
33 32 31 31 30 29 28 28 28 27 27 28 28 29 29 29 29 29 29 29 30 30 29 28 27 28 27 26 27 28 29 30 30 30 30 29 28 27 26 25 24 24
31 31 31 31 30 29 29 28 27 27 27 28 28 28 29 29 29 29 29 29 29 29 29 28 28 28 28 27 27 28 29 30 31 31 31 29 28 28 27 26 25 25

ECMWFNIL_700_spd_087.txt.gz
Wind_Speed
28 27 26 26 24 24 23 23 22 22 21 20 20 19 19 18 17 15 14 14 13 12 12 11 12 11 11 11 10 9 10 10 10 10 10 10 10 11 11 11 10 10
28 28 27 27 26 25 24 24 23 23 22 22 22 21 20 20 19 17 16 15 14 13 13 13 13 13 12 12 11 10 10 10 11 11 11 11 10 10 10 10 10 9
29 28 28 27 26 25 25 25 24 24 23 23 24 23 22 20 20 19 18 17 15 15 14 14 14 14 14 13 12 12 11 11 11 11 11 11 11 10 10 10 10 9
29 28 28 27 27 26 26 26 25 25 25 25 25 24 23 21 21 21 20 19 18 16 15 15 14 15 15 15 14 13 12 12 11 11 12 12 12 11 10 10 10 9
29 29 28 28 28 28 28 27 27 26 26 25 25 25 24 23 22 21 21 20 19 18 16 15 15 15 15 16 16 15 14 13 12 12 12 12 12 11 11 10 10 9
29 29 29 28 29 29 29 29 28 27 27 26 26 26 26 24 23 23 21 20 20 19 18 17 16 15 15 16 17 17 16 15 15 14 14 13 13 13 12 11 11 10
30 30 29 29 30 29 29 29 29 28 28 27 27 26 26 25 24 24 22 21 21 20 19 18 17 16 15 15 16 18 18 17 17 16 16 15 15 14 14 13 13 12
30 30 30 30 30 30 30 30 29 29 28 28 28 27 26 25 24 24 23 22 22 21 20 19 18 17 17 16 16 16 18 19 19 18 18 18 17 16 16 16 15 15
31 31 31 31 31 31 31 30 29 29 29 29 28 27 27 25 25 24 24 23 23 22 21 20 19 18 18 17 16 15 16 18 19 19 20 20 20 19 19 19 18 17
31 31 31 31 31 31 31 30 29 29 29 29 29 28 27 25 25 25 24 23 23 23 22 21 19 19 19 18 17 16 16 17 18 19 20 21 21 21 22 21 21 20
30 31 31 32 32 32 31 30 30 29 29 29 29 29 27 26 25 26 24 23 22 22 21 20 20 19 19 18 17 17 16 17 18 19 19 20 22 22 23 23 23 22
30 30 30 31 32 32 31 31 31 29 29 29 29 29 29 27 26 26 24 22 21 22 21 20 20 20 19 18 17 17 16 17 18 19 19 20 21 22 23 23 24 23
29 30 29 30 30 31 32 32 31 30 29 28 28 29 29 28 27 26 25 23 22 22 21 20 20 20 19 18 18 17 17 17 18 18 18 19 20 21 22 23 24 24
28 29 30 30 30 31 32 32 32 31 30 29 28 28 28 28 27 26 25 24 23 23 23 22 21 21 20 19 19 18 17 17 17 18 18 18 18 19 21 22 23 23
27 29 31 32 32 33 32 32 32 32 32 30 29 28 28 28 27 27 26 25 25 24 24 23 22 21 21 20 19 19 18 17 17 18 18 19 18 18 20 21 22 22
27 29 30 32 33 33 33 33 32 32 33 32 30 29 29 28 28 27 26 25 25 25 25 25 23 21 20 19 19 18 18 19 19 18 18 19 19 19 19 20 21 22
28 29 30 31 32 33 33 34 34 33 33 33 32 31 31 30 30 29 28 26 25 25 25 25 24 23 21 20 19 19 19 20 20 19 19 20 20 20 19 20 21 21
29 29 29 30 31 32 32 34 35 34 34 33 33 31 31 31 31 30 29 27 26 26 26 25 25 24 23 21 20 20 20 21 21 21 20 20 20 20 20 20 21 21
30 29 29 29 30 31 31 33 35 35 34 34 32 31 31 32 32 31 29 28 27 27 26 26 25 25 24 23 21 21 22 22 22 22 22 21 21 21 21 21 21 21
30 29 29 29 29 30 31 32 35 35 34 34 33 32 32 32 32 32 30 29 28 28 27 26 25 26 26 24 23 22 23 23 24 23 23 23 22 22 22 22 22 22
31 30 30 30 31 31 30 31 33 35 35 34 34 33 32 32 32 32 31 30 29 28 28 27 27 28 27 25 24 23 24 24 25 25 25 24 24 23 22 22 22 22
33 31 31 32 32 32 31 30 31 33 34 34 34 33 33 32 32 32 32 31 30 29 29 28 28 29 29 26 24 24 25 26 27 27 27 26 25 24 23 22 22 23
36 33 32 32 33 33 32 30 30 32 33 33 33 33 33 33 32 33 32 31 30 30 30 29 29 29 29 27 25 25 27 28 28 28 28 27 26 25 24 23 23 23
39 35 33 33 33 33 32 31 30 30 31 31 32 32 32 33 32 32 33 32 31 31 31 30 30 30 30 29 27 27 27 28 29 29 29 28 27 26 25 24 24 23
41 38 34 33 33 33 33 31 30 29 29 29 30 30 31 32 31 32 32 32 32 32 32 31 31 32 32 30 29 28 28 28 30 30 30 29 28 27 26 25 24 22
43 40 36 34 33 32 32 32 31 29 29 28 28 29 30 31 31 32 32 32 32 32 33 33 32 32 32 30 29 28 28 29 31 31 31 30 28 28 27 25 24 22

ECMWFNIL_700_spd_093.txt.gz
Wind_Speed
24 24 23 23 23 22 21 20 18 17 16 15 15 14 13 13 12 12 12 11 10 9 9 8 8 7 7 7 8 9 10 11 12 12 13 12 12 12 11 11 11 9
23 23 24 24 24 23 22 21 19 18 17 16 16 16 16 15 14 13 12 11 11 10 10 10 9 8 8 8 8 9 10 11 12 12 12 11 11 10 11 11 11 10
23 23 24 24 24 23 22 22 21 19 18 17 17 17 17 16 15 14 13 12 11 11 10 10 10 9 8 8 9 9 10 11 11 12 11 11 11 11 10 10 11 11
23 23 23 23 23 22 22 23 22 21 20 18 18 17 17 17 16 16 15 13 12 10 10 11 11 11 10 9 10 10 10 11 11 12 11 11 11 12 11 10 10 11
24 23 22 22 23 23 23 23 23 22 21 19 18 18 18 17 17 16 16 15 13 11 11 11 12 12 11 11 10 10 11 11 11 11 12 12 12 12 11 11 10 10
25 24 23 23 23 23 23 23 23 23 23 21 20 19 18 18 17 17 16 15 14 13 12 11 12 13 13 12 12 11 11 11 11 11 12 12 13 13 12 11 11 10
26 25 25 24 24 24 24 23 23 24 24 23 22 21 19 18 17 17 17 16 15 14 13 13 12 12 13 13 13 13 13 12 12 12 12 12 13 13 12 11 11 10
26 26 26 25 25 25 25 24 24 24 24 24 24 23 21 19 17 18 18 17 16 15 14 14 13 13 13 14 14 13 13 13 13 13 13 13 12 12 12 12 11 11
28 27 27 27 27 26 26 26 25 24 24 25 24 24 23 20 18 18 19 18 17 16 15 14 14 14 14 14 14 14 14 14 14 14 14 14 13 13 13 12 12 12
29 29 28 28 28 27 26 26 25 25 25 25 25 25 24 22 20 19 19 19 18 17 16 14 14 14 15 15 15 15 15 15 15 16 16 16 15 15 14 14 14 13
29 29 30 30 29 28 27 26 25 26 25 25 25 25 24 24 22 21 20 20 18 16 16 15 13 14 14 15 15 16 15 16 16 16 17 17 17 17 17 16 16 15
28 29 30 30 29 28 27 26 26 26 25 25 25 24 24 24 23 22 22 21 18 16 16 16 14 14 15 15 16 16 17 17 16 16 16 17 18 19 19 19 18 17
26 27 28 29 29 28 28 27 27 26 25 25 24 24 24 24 24 23 22 22 20 18 17 16 16 15 15 16 17 17 17 17 17 16 16 16 18 19 19 20 20 19
24 25 26 27 28 28 28 28 28 26 25 25 24 24 24 24 23 23 22 23 22 20 18 18 17 16 16 17 17 17 17 17 17 16 16 16 16 17 18 19 19 19
23 24 25 26 28 29 29 29 29 28 26 25 25 24 24 24 23 23 23 23 23 22 21 20 20 18 17 16 17 17 16 16 16 16 15 15 15 16 17 17 17 17
24 24 25 26 27 28 29 29 29 29 28 27 26 25 24 24 24 23 23 24 24 23 23 22 21 20 18 16 16 16 16 15 16 16 15 15 15 15 16 16 16 16
25 25 25 25 26 27 28 28 29 29 29 28 27 26 25 25 25 24 24 23 24 25 24 23 22 20 19 17 17 17 17 17 17 16 16 16 16 16 16 16 16 16
26 25 25 25 25 26 27 28 28 29 30 29 28 27 27 26 26 25 24 23 24 25 26 25 23 21 20 19 19 18 18 18 18 18 18 18 18 18 17 16 16 16
27 26 26 26 25 25 26 27 28 29 30 30 28 28 28 28 27 26 25 24 25 25 25 25 24 23 21 20 20 20 20 20 20 20 20 20 20 19 19 18 18 17
28 27 27 27 26 26 26 27 28 29 29 29 29 28 28 29 29 28 27 25 25 25 25 25 25 24 23 21 21 22 22 22 22 22 23 22 22 21 21 21 20 19
30 29 28 28 28 27 27 27 27 28 29 29 29 29 28 28 29 29 29 27 26 25 25 24 25 24 24 23 23 23 23 23 24 25 25 25 24 23 23 22 21 21
31 30 29 29 28 29 28 28 27 28 28 29 29 28 28 28 28 29 30 29 28 27 26 26 25 25 25 25 24 24 23 24 25 25 26 26 25 25 24 22 22 22
30 31 31 30 29 29 30 29 28 28 28 28 29 28 27 27 28 29 30 30 30 29 28 27 26 26 26 26 26 25 25 26 26 26 26 26 26 26 25 24 22 22
29 29 31 32 31 30 30 30 30 29 28 28 29 28 27 26 26 27 28 30 31 31 30 29 28 27 27 27 27 27 27 28 28 28 27 27 27 26 27 26 24 22
28 29 30 32 33 32 32 31 31 30 29 29 29 29 28 27 26 27 27 28 30 31 31 30 30 29 28 28 28 28 29 29 29 29 29 28 27 27 28 27 25 23
27 28 29 31 33 34 34 33 32 32 31 31 31 30 30 29 28 27 27 27 28 29 31 31 31 31 30 28 28 29 29 30 30 31 30 28 27 28 28 28 26 24

ECMWFNIL_700_spd_096.txt.gz
Wind_Speed
23 23 23 23 20 18 18 17 16 16 14 13 11 11 11 10 11 11 11 12 11 10 9 8 8 8 8 8 8 9 10 11 12 12 12 12 11 11 11 10 10 9
25 24 23 24 23 20 19 19 18 17 16 15 13 13 13 12 11 11 11 12 12 11 11 10 9 8 8 9 9 10 10 11 11 12 12 12 12 12 11 11 11 10
27 26 24 24 24 21 20 20 20 19 18 17 16 16 15 13 12 12 11 12 12 12 12 11 11 10 9 9 10 11 11 12 12 12 11 11 11 11 11 11 11 12
27 27 26 25 25 23 22 21 21 20 20 19 19 17 17 15 14 13 13 12 12 13 13 12 12 12 11 10 11 12 12 13 13 12 11 11 10 10 11 11 11 12
27 26 26 26 26 26 25 23 22 21 20 20 19 19 18 17 16 15 15 14 13 13 13 13 13 13 13 12 12 12 13 13 13 12 12 11 11 10 11 11 11 11
27 27 26 27 27 28 28 26 24 22 21 20 20 19 19 18 17 16 16 16 15 14 13 13 14 14 13 13 13 13 13 14 14 13 13 12 12 11 10 11 12 11
29 28 27 27 28 28 28 28 26 25 23 22 21 20 20 19 18 17 17 17 17 16 15 14 14 14 14 14 14 15 15 15 15 15 14 14 14 13 11 11 11 12
31 30 29 28 28 28 28 28 28 27 25 24 23 22 21 20 19 18 18 18 18 17 16 16 15 15 15 15 15 15 16 16 16 15 15 15 15 15 13 12 12 12
32 32 31 31 30 29 29 28 28 28 27 26 25 23 22 21 20 20 19 19 19 19 18 17 17 16 16 17 16 16 17 17 17 16 16 16 15 16 15 15 14 14
33 33 33 33 32 31 30 28 28 28 28 28 27 26 25 23 21 21 21 21 20 20 20 19 18 18 18 17 17 17 18 17 18 18 17 17 17 17 17 17 17 16
33 34 34 34 33 32 31 29 29 29 29 29 29 28 27 25 24 23 23 23 22 21 21 20 19 19 19 18 18 18 18 18 19 19 19 19 18 19 19 19 19 18
33 34 34 34 33 32 31 30 30 30 30 30 30 29 29 28 26 24 23 24 23 22 22 21 20 19 19 19 20 20 19 19 20 20 20 20 21 21 21 20 20 20
33 33 33 33 33 32 31 31 31 31 31 30 30 30 30 29 28 25 23 24 24 23 22 22 22 21 20 20 21 22 21 21 21 21 21 22 22 22 22 22 22 22
31 32 33 33 33 32 32 32 32 32 31 31 30 30 30 29 28 26 24 24 25 25 23 22 23 23 22 22 22 23 23 23 22 22 22 22 22 22 23 23 23 23
29 31 32 33 33 33 33 33 33 32 32 31 31 31 30 29 29 28 26 25 25 26 25 24 24 24 24 24 24 24 24 24 23 23 22 22 22 22 23 23 23 23
28 29 30 32 33 34 34 34 34 33 33 33 32 31 30 29 29 29 28 27 26 27 27 26 25 24 24 24 24 24 24 24 24 24 23 22 22 22 23 23 23 22
28 29 29 30 32 33 34 34 34 34 34 34 33 32 31 30 29 30 29 28 27 28 28 28 26 25 23 23 24 24 24 24 24 24 24 23 23 22 22 22 22 22
30 30 29 30 30 31 33 34 34 35 34 34 34 33 32 31 30 30 29 29 29 29 30 29 27 25 24 24 24 24 24 24 24 24 24 24 24 23 22 21 21 21
31 31 31 30 30 30 31 32 34 35 35 34 34 33 33 32 31 30 29 29 29 30 30 30 29 27 26 26 25 25 25 25 25 25 25 24 24 23 22 22 21 21
33 33 32 31 30 30 31 32 33 34 34 34 33 33 33 33 32 31 29 29 29 30 30 31 30 29 28 27 26 26 26 26 26 25 25 25 25 24 23 23 22 22
34 34 33 33 32 31 31 32 33 34 34 33 33 33 33 33 32 32 30 29 28 29 30 31 30 29 29 29 28 27 27 27 28 27 27 27 26 26 25 25 24 24
33 35 35 34 33 33 32 32 33 33 33 33 33 33 32 32 32 32 31 30 29 28 29 30 30 29 29 30 29 29 29 29 30 30 30 29 29 28 27 26 26 26
31 34 36 35 36 35 34 33 33 33 33 33 33 33 32 32 31 32 32 31 30 29 29 29 29 29 29 29 30 30 31 31 32 31 32 31 30 29 29 28 28 27
31 32 33 34 36 37 36 35 34 33 33 33 34 33 32 31 31 31 32 32 31 30 29 29 29 29 29 29 29 30 31 32 32 32 32 32 31 30 30 30 29 29
33 31 30 31 35 38 37 37 36 34 34 33 34 34 32 32 31 31 32 32 31 31 30 30 29 29 29 30 29 30 31 31 32 32 32 32 31 31 31 31 31 30
34 31 29 29 32 36 37 37 37 36 35 35 35 34 34 33 32 31 31 31 31 31 31 31 30 30 30 30 30 31 31 32 33 34 34 33 32 32 33 33 32 32